EW7605 Weather Reports


time (UTC)temp
C
wind
direction
speed
KPH
gust
KPH
rain 1hr
cm
rain 24hr
cm
rain mn
cm
humidity
%
barometer
mb
20260506014542 15 211 4.8 8.0 0.00 0.00 0.00 71 1007.4
20260506013038 15 211 1.6 6.4 0.00 0.00 0.00 71 1007.3
20260506011537 16 214 3.2 6.4 0.00 0.00 0.00 70 1007.3
20260506010038 15 205 3.2 8.0 0.00 0.00 0.00 70 1007.1
20260506004537 16 191 3.2 9.7 0.00 0.00 0.00 70 1007.0
20260506003039 16 219 4.8 11.3 0.00 0.00 0.00 70 1006.7
20260506001539 16 236 1.6 14.5 0.00 0.00 0.00 68 1005.9
20260506000036 17 244 1.6 4.8 0.00 0.00 0.00 68 1005.2
20260505234537 17 5 0.0 4.8 0.00 0.00 0.00 66 1005.8
20260505233034 17 5 0.0 6.4 0.00 0.00 0.00 66 1005.8
20260505231535 17 288 4.8 14.5 0.00 0.00 0.00 65 1006.1
20260505230048 17 342 11.3 24.1 0.00 0.00 0.00 65 1006.0
20260505224533 17 234 11.3 29.0 0.00 0.00 0.00 64 1003.8
20260505223032 17 225 14.5 40.2 0.00 0.00 0.00 64 1003.8
20260505221531 17 279 17.7 30.6 0.00 0.00 0.00 62 1003.7
20260505220032 17 64 12.9 22.5 0.00 0.00 0.00 65 1003.6
20260505214530 17 232 12.9 24.1 0.00 0.00 0.00 67 1003.6
20260505213029 17 229 11.3 24.1 0.00 0.00 0.00 67 1003.5
20260505211528 17 196 11.3 20.9 0.00 0.00 0.00 65 1003.3
20260505210028 18 249 11.3 29.0 0.00 0.00 0.00 63 1003.3
20260505204527 18 224 14.5 35.4 0.00 0.00 0.00 63 1003.2
20260505203027 18 196 12.9 33.8 0.00 0.00 0.00 63 1003.2
20260505201524 18 271 14.5 33.8 0.00 0.00 0.00 63 1003.3
20260505200024 18 196 11.3 32.2 0.00 0.00 0.00 63 1003.6
20260505194523 18 338 8.0 20.9 0.00 0.00 0.00 63 1003.9
20260505193020 18 242 14.5 29.0 0.00 0.00 0.00 63 1004.0
20260505191517 18 197 12.9 27.4 0.00 0.00 0.00 63 1004.2
20260505190015 19 213 11.3 22.5 0.00 0.00 0.00 60 1004.4
20260505184515 18 226 11.3 24.1 0.00 0.00 0.00 63 1004.4
20260505183012 18 252 12.9 30.6 0.00 0.00 0.00 64 1004.8
20260505181512 18 203 14.5 27.4 0.00 0.00 0.00 65 1005.0
20260505180023 18 205 19.3 35.4 0.00 0.00 0.00 63 1005.0
20260505174508 18 220 14.5 24.1 0.00 0.00 0.00 61 1005.1
20260505173007 19 219 11.3 30.6 0.00 0.00 0.00 61 1005.0
20260505171505 20 198 12.9 27.4 0.00 0.00 0.00 60 1005.5
20260505170002 20 211 8.0 25.7 0.00 0.00 0.00 59 1005.5
20260505164600 20 207 14.5 33.8 0.00 0.00 0.00 57 1005.7
20260505163058 20 281 8.0 25.7 0.00 0.00 0.00 57 1006.2
20260505161556 20 271 9.7 19.3 0.00 0.00 0.00 61 1006.2
20260505153044 15 244 9.7 16.1 0.00 0.00 0.00 71 1007.1
20260505151541 13 284 11.3 17.7 0.00 0.00 0.00 72 1007.3
20260505124523 13 196 4.8 17.7 0.00 0.00 0.00 70 1007.2
20260505123029 13 186 8.0 17.7 0.00 0.00 0.00 71 1007.2
20260505121519 13 238 9.7 17.7 0.00 0.00 0.00 71 1007.3
20260505120023 13 329 6.4 16.1 0.00 0.00 0.00 71 1007.4
20260505114516 12 227 4.8 16.1 0.00 0.00 0.00 72 1007.7
20260505113014 12 214 6.4 17.7 0.00 0.00 0.00 71 1007.6
20260505111519 11 213 6.4 12.9 0.00 0.00 0.00 69 1007.7
20260505101527 9 259 3.2 8.0 0.00 0.00 0.00 63 1007.6
20260505100032 9 250 1.6 6.4 0.00 0.00 0.00 61 1007.6
20260505094508 9 262 3.2 9.7 0.00 0.00 0.00 63 1007.6
20260505093005 9 194 3.2 11.3 0.00 0.00 0.00 67 1007.5
20260505091503 9 219 1.6 6.4 0.00 0.00 0.00 70 1007.5
20260505090108 10 222 1.6 4.8 0.00 0.00 0.00 72 1007.6
20260505084606 10 213 1.6 4.8 0.00 0.00 0.00 73 1007.7
20260505083057 11 221 3.2 11.3 0.00 0.00 0.00 72 1007.8
20260505081604 11 244 0.0 4.8 0.00 0.00 0.00 69 1007.8
20260505080059 11 238 1.6 4.8 0.00 0.00 0.00 68 1007.7
20260505074549 12 230 1.6 4.8 0.00 0.00 0.00 67 1007.9
20260505073048 12 240 1.6 6.4 0.00 0.00 0.00 66 1007.7
20260505071551 12 284 0.0 3.2 0.00 0.00 0.00 65 1007.7
20260505070042 12 286 0.0 4.8 0.00 0.00 0.00 64 1007.7
20260505064541 12 267 0.0 4.8 0.00 0.00 0.00 64 1007.7
20260505063047 12 294 0.0 3.2 0.00 0.00 0.00 64 1007.7
20260505061541 13 292 0.0 1.6 0.00 0.00 0.00 63 1007.7
20260505060037 13 291 0.0 4.8 0.00 0.00 0.00 63 1007.7
20260505054544 13 291 0.0 4.8 0.00 0.00 0.00 62 1007.6
20260505053040 13 277 0.0 4.8 0.00 0.00 0.00 62 1007.6
20260505051540 13 261 1.6 6.4 0.00 0.00 0.00 61 1007.5
20260505041526 13 229 3.2 11.3 0.00 0.00 0.00 63 1007.2
20260505040023 13 14 1.6 12.9 0.00 0.00 0.00 65 1007.0
20260505034523 12 263 4.8 12.9 0.00 0.00 0.00 68 1006.9
20260505033022 12 259 3.2 12.9 0.00 0.00 0.00 70 1006.9
20260505031528 11 207 3.2 9.7 0.00 0.00 0.00 72 1006.8
20260505030023 11 275 3.2 8.0 0.00 0.00 0.00 72 1006.9
20260505024520 10 239 1.6 8.0 0.00 0.00 0.00 71 1006.8
20260505023022 10 197 1.6 4.8 0.00 0.00 0.00 71 1006.7
20260505021520 10 247 1.6 6.4 0.00 0.00 0.00 70 1006.7
20260505020019 10 266 3.2 6.4 0.00 0.00 0.00 71 1006.7